Wind_Speed
18 19 20 20 21 21 20 20 20 20 19 19 19 19 20 22 23 26 28 31 34 36 38 41 42 43 45 46 45 43 41 39 38 35 33 32 31 31 32 31 29 29 27
19 19 20 20 20 20 20 20 20 19 18 17 17 16 17 18 19 21 24 27 31 33 35 38 40 42 43 45 45 45 44 42 41 38 36 35 33 32 33 34 33 32 31
18 19 20 21 20 20 20 21 20 18 17 16 15 14 14 15 16 18 21 24 26 29 32 34 37 40 42 43 44 44 44 44 43 41 39 37 35 34 35 34 35 35 34
18 19 20 20 21 21 21 21 19 18 17 16 15 14 13 13 13 15 17 19 23 26 28 31 33 36 39 42 43 43 43 44 44 42 41 40 38 36 35 35 36 37 37
18 19 20 20 21 21 21 20 20 19 18 17 16 15 13 12 13 13 14 16 18 21 25 27 30 34 36 39 41 42 43 43 44 43 43 42 41 40 37 35 36 37 38
17 19 20 20 21 21 21 20 20 20 20 19 17 16 15 13 13 12 13 14 15 18 20 24 27 30 33 36 39 41 42 43 43 44 44 43 42 41 41 39 38 38 40
17 18 19 20 21 21 21 21 21 21 20 20 19 18 16 15 14 13 13 13 13 15 18 20 23 26 29 32 35 39 41 42 44 45 45 44 44 43 43 42 40 39 40
16 17 19 20 21 22 21 21 21 21 21 21 20 19 18 17 16 15 14 13 13 12 13 16 19 22 26 29 32 35 38 40 42 44 46 46 46 46 45 44 43 42 42
16 17 18 20 21 22 22 22 22 22 22 22 21 20 20 19 18 16 15 14 13 12 11 13 16 19 22 26 30 33 36 38 40 42 44 45 47 47 47 46 45 45 44
16 17 18 19 20 22 22 23 23 23 23 23 23 22 21 20 20 19 18 17 15 13 12 12 13 16 19 23 26 30 33 36 38 40 42 43 45 47 48 47 47 47 46
16 17 18 19 20 21 22 23 24 24 24 24 24 23 23 22 21 20 19 18 17 15 14 13 13 14 16 19 22 26 29 32 35 38 40 42 44 46 48 48 48 49 48
15 16 17 18 19 20 21 22 23 24 24 24 24 24 24 23 22 22 20 20 18 17 15 14 14 14 15 17 20 22 26 29 32 35 37 39 42 44 46 48 49 49 49
15 16 17 18 19 20 21 22 23 23 24 24 25 25 25 24 24 23 22 21 21 19 18 16 16 15 16 17 18 20 23 26 30 32 35 37 39 42 44 46 47 47 47
15 15 16 17 19 20 21 22 22 23 23 24 25 25 25 25 25 24 24 23 22 21 20 19 18 17 16 15 16 18 20 23 27 29 32 35 37 39 41 43 46 46 45
14 15 16 17 18 19 20 21 22 23 23 24 24 25 25 25 26 25 25 24 24 23 22 21 20 18 16 15 14 15 17 20 23 26 29 31 34 36 38 40 42 45 45
14 15 16 17 17 18 20 21 22 23 23 24 25 25 25 25 26 26 26 25 25 25 24 23 21 19 17 15 13 13 14 16 19 22 25 28 31 33 35 36 38 40 42
14 15 15 16 17 18 19 20 21 22 23 24 24 25 25 26 26 27 27 27 26 26 26 24 23 21 18 16 14 12 12 13 15 18 21 23 27 30 32 34 36 37 37
14 15 16 17 18 18 19 20 21 22 23 23 24 25 25 26 26 27 28 28 28 27 27 25 24 22 20 18 15 12 10 11 13 15 17 20 23 27 30 31 33 35 34
15 16 17 17 18 19 20 20 21 22 22 23 24 25 25 25 26 27 28 29 29 28 28 27 25 23 21 20 17 14 11 10 10 12 14 17 20 23 25 28 30 32 33
16 17 17 18 19 20 20 21 21 22 22 23 24 24 25 25 26 27 27 28 29 29 28 27 26 24 22 20 18 15 12 9 8 9 11 13 16 19 21 23 26 29 30
17 18 19 19 20 20 21 21 22 22 22 23 23 24 25 25 26 26 27 27 28 28 28 27 27 25 24 22 20 16 13 10 7 5 7 10 12 15 18 20 22 24 27
19 20 20 20 21 21 21 22 22 22 23 23 24 24 25 25 25 26 26 26 26 27 27 27 27 26 25 23 21 18 15 11 7 4 4 6 8 11 14 17 19 20 22
20 20 21 21 21 22 22 22 23 23 23 24 24 24 25 25 25 25 25 26 26 25 26 26 26 25 25 23 22 19 16 13 9 6 3 3 5 7 9 12 15 17 20
21 21 22 22 23 23 24 24 24 24 24 25 25 25 25 25 25 25 25 25 25 25 24 24 24 24 24 23 22 20 16 13 10 7 5 3 1 4 7 9 12 15 16
23 23 24 24 25 25 25 25 25 25 25 26 26 25 25 25 25 24 24 24 24 24 24 23 23 22 22 22 21 19 17 13 11 8 5 3 1 3 5 8 10 13 15
26 26 27 28 28 28 28 27 27 26 26 27 27 26 26 25 25 24 24 24 24 23 23 22 22 21 20 20 19 18 16 13 11 8 6 3 1 2 4 6 9 11 13
Wind_Direction
343 341 338 336 334 333 332 329 324 320 313 304 295 287 279 272 266 262 257 254 252 250 249 248 248 247 246 246 246 244 244 243 241 241 239 238 236 235 232 230 229 228 226
349 349 347 345 343 341 339 336 333 329 325 319 308 298 288 278 271 267 262 257 253 251 249 248 247 246 245 244 244 244 243 243 241 241 240 238 237 236 234 232 230 229 228
354 354 353 352 350 348 347 345 342 340 337 333 325 312 301 290 281 274 268 262 256 252 250 248 247 245 244 243 243 243 242 241 241 240 239 239 238 237 233 232 232 232 230
358 358 356 355 354 354 353 353 352 351 348 344 340 331 319 308 298 287 277 268 259 254 251 249 246 245 244 243 243 242 242 241 240 238 237 237 237 238 236 234 234 233 231
1 1 1 1 0 360 0 1 1 360 358 354 350 345 337 325 314 303 291 279 268 260 255 251 248 245 244 243 242 242 241 240 239 238 237 237 236 238 237 235 234 233 232
4 4 5 6 6 5 6 6 7 6 4 3 359 355 349 340 331 320 308 294 279 269 261 255 250 247 245 244 242 241 240 240 239 238 237 237 236 236 235 234 235 234 232
7 8 9 9 9 9 10 10 10 10 10 9 7 3 358 351 343 334 325 313 297 280 267 260 254 250 247 245 244 242 241 240 240 239 238 237 237 236 235 234 233 234 233
10 11 11 11 11 13 14 14 14 13 12 11 11 9 5 360 353 346 338 330 317 300 281 268 260 255 250 247 245 243 241 240 239 239 239 238 237 236 236 235 233 233 233
16 15 15 15 16 17 19 19 17 16 16 14 13 11 8 5 0 355 347 339 328 317 302 286 272 263 256 250 247 244 242 241 239 238 238 238 237 236 235 235 234 233 232
20 20 19 19 19 21 22 21 20 18 17 16 15 13 10 8 4 359 354 348 338 328 314 300 288 276 266 258 252 247 244 241 240 239 238 237 237 236 234 234 234 232 232
23 22 21 21 21 21 21 21 20 19 19 17 16 15 13 10 7 3 359 355 349 338 326 313 299 287 277 267 259 251 247 243 241 240 238 238 237 237 235 235 234 233 232
23 22 21 20 21 21 20 19 19 19 18 17 17 15 14 12 10 8 4 360 356 349 338 327 314 298 285 274 265 257 250 245 242 241 240 239 238 237 236 235 234 234 234
23 21 20 20 19 19 18 18 17 17 17 17 17 16 15 13 11 9 7 3 359 353 345 337 328 314 299 285 273 263 254 248 244 242 241 240 239 238 237 236 236 235 235
22 21 20 19 17 17 16 16 16 15 15 14 14 14 15 14 12 10 8 5 2 358 352 345 336 327 315 296 281 270 259 251 247 244 242 240 239 239 238 238 237 236 235
18 17 15 15 14 14 13 13 13 13 13 12 12 12 12 12 11 10 8 6 3 0 356 352 345 338 328 313 293 276 265 255 249 245 243 241 239 238 236 236 237 237 237
8 8 7 7 7 7 8 8 9 9 10 10 10 10 9 9 9 9 8 6 4 2 359 355 352 346 339 329 313 293 276 261 252 246 244 241 237 236 234 235 235 235 235
356 357 358 358 359 360 0 1 2 3 5 6 6 7 7 7 7 7 6 5 4 2 0 358 356 353 347 339 326 308 288 272 259 249 244 240 236 234 233 233 233 231 232
344 346 348 349 349 351 352 353 354 356 357 359 1 2 3 4 4 4 5 5 4 3 2 360 359 357 354 349 340 324 302 281 267 256 248 242 238 234 233 230 229 229 230
334 336 338 340 341 343 344 346 347 349 351 353 355 357 358 358 359 1 2 3 4 4 3 3 2 0 359 356 351 340 323 298 278 262 252 245 239 236 234 231 229 227 226
328 330 332 334 335 336 338 339 341 343 345 346 349 351 353 354 355 356 358 0 2 4 6 6 6 5 3 2 360 354 342 323 295 270 254 246 241 235 233 229 228 228 227
323 325 327 329 330 332 333 335 336 338 339 340 342 344 347 349 351 353 355 357 360 2 5 6 7 7 7 5 5 2 355 344 325 285 260 250 246 237 232 228 226 227 226
317 319 321 323 325 326 328 330 332 334 336 337 338 339 341 343 346 349 351 353 356 358 1 4 5 7 7 7 6 6 5 1 351 326 278 254 244 232 228 223 221 221 218
314 316 318 319 321 322 323 326 328 329 331 333 334 335 336 338 340 343 346 349 351 353 357 359 2 4 6 7 7 7 8 8 7 1 336 286 244 221 215 211 209 208 208
311 313 315 316 317 318 319 321 323 324 325 326 328 330 332 334 335 337 340 343 345 348 351 354 357 0 2 5 6 7 8 9 10 9 7 3 243 202 197 198 199 198 200
309 310 311 312 313 314 314 316 318 318 318 319 320 322 325 327 329 331 333 336 339 342 344 347 351 354 357 0 3 5 8 10 11 12 14 23 91 183 187 189 191 195 198
305 306 307 308 308 308 309 311 312 313 313 313 314 315 316 318 321 323 325 328 331 334 337 339 343 346 350 354 358 1 4 6 8 10 13 19 55 171 181 191 197 199 201
Height
5850 5846 5842 5838 5834 5829 5825 5821 5817 5813 5809 5806 5804 5803 5802 5801 5801 5801 5802 5803 5804 5806 5809 5812 5814 5818 5821 5825 5829 5833 5837 5841 5844 5847 5851 5854 5857 5860 5864 5867 5870 5873 5876
5849 5845 5840 5836 5831 5827 5823 5818 5814 5810 5806 5802 5800 5798 5796 5796 5795 5795 5795 5795 5796 5798 5800 5803 5805 5808 5812 5816 5819 5824 5828 5832 5836 5839 5842 5846 5851 5854 5857 5860 5864 5867 5870
5848 5843 5839 5835 5830 5825 5821 5816 5812 5807 5804 5800 5797 5794 5792 5791 5790 5790 5789 5789 5789 5791 5792 5794 5797 5799 5803 5806 5810 5814 5819 5823 5827 5831 5835 5839 5843 5846 5849 5853 5856 5860 5864
5847 5843 5839 5834 5829 5825 5820 5815 5810 5806 5802 5798 5795 5792 5789 5788 5786 5785 5784 5783 5783 5784 5785 5786 5788 5791 5794 5797 5801 5805 5809 5814 5818 5822 5826 5830 5834 5838 5842 5845 5849 5852 5856
5847 5843 5838 5834 5829 5824 5819 5815 5810 5806 5801 5797 5793 5790 5787 5785 5783 5781 5780 5779 5778 5778 5778 5779 5781 5783 5786 5789 5792 5796 5800 5804 5808 5813 5817 5821 5825 5829 5833 5837 5841 5844 5848
5847 5843 5838 5834 5829 5824 5819 5815 5810 5806 5801 5797 5793 5789 5786 5783 5781 5778 5776 5775 5773 5773 5772 5773 5774 5775 5778 5780 5783 5787 5791 5795 5799 5803 5807 5812 5816 5820 5824 5828 5832 5836 5840
5847 5843 5838 5834 5830 5825 5820 5815 5810 5806 5801 5797 5793 5789 5785 5782 5779 5776 5774 5771 5769 5767 5767 5767 5767 5769 5770 5772 5775 5778 5781 5785 5789 5793 5798 5802 5806 5811 5815 5819 5823 5827 5831
5847 5843 5839 5835 5830 5825 5820 5816 5811 5807 5802 5798 5793 5789 5785 5782 5778 5775 5772 5769 5766 5763 5762 5762 5762 5762 5763 5765 5767 5769 5772 5776 5779 5783 5787 5792 5796 5801 5805 5810 5814 5818 5822
5847 5843 5839 5835 5831 5826 5821 5817 5812 5807 5803 5798 5794 5790 5785 5781 5778 5774 5770 5766 5763 5761 5759 5758 5757 5757 5757 5758 5759 5761 5764 5766 5770 5773 5777 5782 5786 5790 5795 5800 5804 5809 5813
5847 5844 5840 5836 5832 5828 5823 5818 5814 5809 5804 5799 5795 5790 5786 5781 5777 5773 5769 5765 5761 5758 5756 5754 5753 5752 5751 5751 5751 5753 5755 5758 5761 5764 5768 5771 5776 5780 5785 5789 5794 5799 5804
5848 5845 5841 5837 5833 5829 5825 5820 5815 5810 5805 5801 5796 5791 5786 5782 5777 5773 5768 5764 5760 5756 5753 5751 5749 5747 5746 5745 5745 5745 5747 5749 5752 5755 5758 5762 5766 5770 5775 5779 5784 5789 5794
5849 5846 5842 5839 5835 5830 5826 5821 5817 5812 5807 5802 5797 5792 5787 5782 5777 5772 5767 5763 5759 5755 5751 5748 5745 5742 5741 5739 5739 5739 5740 5741 5744 5746 5749 5753 5756 5760 5764 5769 5774 5779 5784
5850 5846 5843 5839 5836 5832 5827 5823 5818 5813 5808 5803 5798 5793 5788 5783 5777 5772 5767 5762 5758 5753 5749 5745 5741 5738 5736 5734 5732 5732 5732 5733 5735 5738 5741 5744 5747 5751 5755 5759 5764 5769 5774
5850 5847 5844 5840 5837 5833 5828 5824 5819 5815 5810 5805 5800 5794 5789 5783 5778 5772 5767 5762 5757 5752 5747 5743 5738 5734 5731 5728 5726 5725 5725 5726 5727 5729 5732 5735 5738 5742 5745 5750 5754 5759 5764
5851 5848 5844 5841 5837 5833 5829 5825 5820 5816 5811 5806 5800 5795 5790 5784 5779 5773 5768 5762 5757 5751 5746 5741 5736 5731 5727 5724 5721 5720 5719 5719 5720 5722 5724 5726 5729 5733 5737 5740 5745 5750 5755
5851 5848 5844 5841 5837 5834 5830 5826 5821 5817 5812 5807 5801 5796 5791 5785 5780 5774 5768 5762 5756 5750 5744 5739 5733 5728 5724 5720 5717 5715 5714 5713 5714 5715 5717 5719 5721 5725 5728 5732 5736 5741 5746
5850 5847 5844 5841 5837 5833 5830 5825 5821 5817 5812 5807 5802 5797 5791 5786 5780 5774 5768 5762 5756 5750 5744 5737 5732 5726 5721 5717 5713 5711 5709 5709 5709 5709 5710 5712 5714 5717 5720 5724 5728 5733 5737
5849 5846 5843 5840 5836 5833 5829 5825 5821 5816 5812 5807 5802 5797 5791 5786 5781 5775 5769 5762 5756 5749 5743 5736 5730 5725 5719 5715 5710 5707 5705 5704 5704 5704 5705 5706 5708 5710 5713 5716 5720 5725 5729
5847 5844 5841 5838 5835 5831 5827 5824 5820 5815 5811 5806 5801 5796 5791 5786 5780 5775 5769 5763 5756 5749 5743 5736 5730 5724 5719 5714 5709 5705 5703 5701 5700 5700 5700 5701 5702 5704 5707 5710 5714 5718 5722
5845 5842 5839 5836 5833 5829 5826 5822 5818 5814 5810 5805 5800 5796 5790 5785 5780 5774 5769 5763 5756 5750 5743 5737 5731 5725 5720 5714 5709 5705 5701 5699 5697 5697 5697 5697 5698 5699 5701 5704 5707 5711 5715
5842 5839 5836 5833 5830 5827 5823 5819 5816 5812 5808 5803 5799 5794 5789 5784 5779 5774 5768 5763 5757 5751 5745 5739 5733 5727 5721 5715 5710 5705 5701 5698 5696 5695 5694 5694 5694 5695 5697 5699 5702 5706 5709
5838 5836 5833 5830 5827 5823 5820 5817 5813 5809 5805 5801 5797 5792 5788 5783 5778 5773 5768 5762 5757 5751 5746 5740 5734 5728 5723 5717 5712 5707 5702 5698 5696 5694 5693 5693 5692 5693 5694 5696 5699 5702 5705
5834 5831 5828 5826 5823 5820 5816 5813 5810 5806 5802 5798 5794 5790 5786 5781 5777 5772 5767 5762 5757 5752 5746 5741 5735 5730 5724 5719 5713 5708 5704 5700 5697 5695 5694 5692 5692 5692 5693 5694 5696 5699 5702
5829 5827 5824 5821 5818 5815 5812 5809 5806 5802 5798 5795 5791 5787 5783 5778 5774 5770 5765 5761 5756 5751 5746 5741 5736 5731 5726 5721 5715 5711 5706 5702 5699 5697 5695 5693 5693 5692 5693 5694 5695 5698 5700
5823 5821 5818 5815 5813 5809 5806 5804 5801 5797 5794 5790 5786 5783 5779 5775 5771 5767 5763 5759 5754 5750 5745 5741 5736 5732 5727 5722 5717 5713 5708 5705 5702 5699 5697 5696 5695 5694 5694 5695 5696 5698 5700
5817 5815 5812 5809 5806 5803 5800 5797 5795 5791 5788 5784 5781 5777 5774 5771 5767 5763 5760 5756 5752 5748 5744 5740 5736 5732 5727 5723 5719 5715 5711 5707 5704 5702 5700 5698 5697 5696 5696 5696 5697 5698 5700